Change the Weather History Date:

Thursday, December 8, 2011

  Actual Average Record
Temperature  
Mean Temperature 3 °F 18 °F  
Max Temperature 11 °F 28 °F 69 °F (1939)
Min Temperature -5 °F 9 °F -45 °F (1927)
Degree Days  
Heating Degree Days 62 47  
Month to date heating degree days 386 363  
Since 1 July heating degree days 2074 2356  
Cooling Degree Days 0 0  
Month to date cooling degree days 0 0  
Year to date cooling degree days 558 533  
Moisture  
Dew Point -3 °F    
Average Humidity 75    
Maximum Humidity 86    
Minimum Humidity 63    
Precipitation  
Precipitation 0.00 in 0.01 in 0.50 in (1894)
Month to date precipitation 0.11 0.09  
Year to date precipitation 22.72 11.35  
Snow  
Snow 0.00 in 0.20 in 3.50 in (2012)
Month to date snowfall 2.0 1.7  
Since 1 July snowfall 10.8 8.3  
Snow Depth 0.00 in    
Sea Level Pressure  
Sea Level Pressure 30.39 in    
Wind  
Wind Speed 3 mph (NW)    
Max Wind Speed 9 mph    
Max Gust Speed 12 mph    
Visibility 10 miles    
Events      
T = Trace of Precipitation, MM = Missing Value Source: NWS Daily Summary

Daily Weather History Graph

Daily Weather History Graph

Search for Another Location

Airport or City:

Trip Planner

Search our weather history database for the weather conditions in past years. The results will help you decide how hot, cold, wet, or windy it might be!

Date:

Astronomy

Dec. 08, 2011 Rise Set
Actual Time 7:43 AM MST 4:12 PM MST
Civil Twilight 7:07 AM MST 4:48 PM MST
Nautical Twilight 6:28 AM MST 5:28 PM MST
Astronomical Twilight 5:50 AM MST 6:06 PM MST
Moon 2:54 PM MST (12/8) 5:56 AM MST (12/8)
Length of Visible Light 9h 41m
Length of Day
8h 28m
Waxing Gibbous, 97% of the Moon is Illuminated
Dec 8
Waxing Gibbous
Dec 10
Full
Dec 17
Last Quarter
Dec 24
New
Dec 31
First Quarter

Hourly Weather History & Observations

Time (MST) Temp. Windchill Dew Point Humidity Pressure Visibility Wind Dir Wind Speed Gust Speed Precip Events Conditions
12:53 AM 3.9 °F -8.2 °F -0.9 °F 80% 30.42 in 10.0 mi West 6.9 mph - N/A   Clear
1:53 AM 3.0 °F -9.3 °F -2.0 °F 80% 30.41 in 10.0 mi NW 6.9 mph - N/A   Clear
2:53 AM 3.0 °F -4.4 °F -2.9 °F 76% 30.42 in 10.0 mi WNW 3.5 mph - N/A   Clear
3:53 AM -0.9 °F -14.1 °F -6.0 °F 79% 30.42 in 10.0 mi NNW 6.9 mph - N/A   Clear
4:53 AM -2.9 °F -16.5 °F -8.0 °F 79% 30.43 in 10.0 mi NNW 6.9 mph - N/A   Clear
5:53 AM -2.0 °F -10.1 °F -7.1 °F 79% 30.43 in 10.0 mi WSW 3.5 mph - N/A   Clear
6:53 AM -2.0 °F -12.2 °F -7.1 °F 79% 30.43 in 10.0 mi West 4.6 mph - N/A   Clear
7:53 AM -0.9 °F -8.9 °F -6.0 °F 79% 30.42 in 10.0 mi West 3.5 mph - N/A   Clear
8:53 AM -0.0 °F - -6.0 °F 76% 30.41 in 10.0 mi Calm Calm - N/A   Clear
9:53 AM 1.0 °F -11.7 °F -5.1 °F 75% 30.41 in 10.0 mi West 6.9 mph - N/A   Clear
10:53 AM 6.1 °F -0.9 °F -2.0 °F 69% 30.40 in 10.0 mi West 3.5 mph - N/A   Clear
11:53 AM 7.0 °F - -0.9 °F 70% 30.38 in 10.0 mi Calm Calm - N/A   Mostly Cloudy
12:53 PM 9.0 °F 2.4 °F -0.0 °F 67% 30.36 in 10.0 mi NW 3.5 mph - N/A   Scattered Clouds
2:53 PM 10.0 °F 0.4 °F -0.0 °F 64% 30.33 in 10.0 mi North 5.8 mph - N/A   Mostly Cloudy
3:53 PM 9.0 °F 0.6 °F -0.0 °F 67% 30.35 in 10.0 mi North 4.6 mph - N/A   Overcast
4:53 PM 9.0 °F 0.6 °F 1.0 °F 70% 30.36 in 10.0 mi North 4.6 mph - N/A   Overcast
5:53 PM 8.1 °F - -0.0 °F 70% 30.36 in 10.0 mi Calm Calm - N/A   Overcast
6:53 PM 8.1 °F - -0.0 °F 70% 30.37 in 10.0 mi Calm Calm - N/A   Overcast
7:53 PM 8.1 °F 1.4 °F -0.0 °F 70% 30.36 in 10.0 mi North 3.5 mph - N/A   Overcast
8:53 PM 3.0 °F -4.4 °F -2.9 °F 76% 30.38 in 10.0 mi NE 3.5 mph - N/A   Overcast
9:53 PM 3.9 °F - -0.9 °F 80% 30.38 in 10.0 mi Calm Calm - N/A   Clear
10:53 PM 5.0 °F - -0.9 °F 76% 30.38 in 10.0 mi Calm Calm - N/A   Clear
11:53 PM -0.9 °F - -6.0 °F 79% 30.40 in 10.0 mi Calm Calm - N/A   Clear